Location: Praha
(50.0755°N, 14.4378°E)
Time: 22:07:54
(UTC+01:00)

ISS - Pass Details

Date: 26 January 2020
Orbit: 415 x 423 km, 51.6° (Epoch: 25 February)

Event Time Altitude Azimuth Distance (km) Brightness Sun altitude
Rises 18:22:05 0° 251° (WSW) 2,375 1.9 -15.4°
Reaches altitude 10° 18:24:11 10° 251° (WSW) 1,511 0.4 -15.7°
Maximum altitude 18:27:34 85° 163° (SSE) 430 -3.8 -16.3°
Enters shadow 18:28:35 43° 77° (ENE) 608 -3.5 -16.4°
